Location: Kresge Environmental Education Center
(43.1138°N, 83.2433°W)
Time: 17:08:47
(UTC-05:00)

Daily predictions for brighter satellites

Satellite Brightness Start Highest point End
(mag) Time Altitude Azimuth Time Altitude Azimuth Time Altitude Azimuth
BREEZE-M DEB (TANK) 3.8 17:50:18 10° WNW 17:52:47 45° SSW 17:58:30 10° SE
Tsikada Rocket 4.1 17:47:27 10° S 17:53:45 68° E 18:00:08 10° NNE
Cosmos 2219 Rocket 2.9 17:52:10 10° S 17:57:15 36° ESE 18:02:21 10° NE
Cosmos 2322 Rocket 4.1 17:53:19 10° WSW 17:58:00 26° NW 18:02:43 10° N
Cosmos 1743 Rocket 4.0 17:54:13 10° SSE 17:58:26 41° E 18:02:39 10° NNE
Cosmos 2278 Rocket 2.9 17:56:16 10° N 18:01:18 31° NE 18:06:18 10° ESE
Cosmos 1328 Rocket 3.7 17:58:29 10° N 18:02:51 53° E 18:07:12 10° SSE
Cosmos 1908 3.2 18:05:22 10° N 18:09:16 89° E 18:13:09 10° S
USA 215 3.4 18:02:54 10° ESE 18:09:16 56° NNE 18:15:39 10° NW
Cosmos 1515 Rocket 3.8 18:05:25 10° N 18:09:45 47° ENE 18:14:02 10° SSE
Cosmos 2151 4.0 18:06:49 10° SE 18:10:13 24° E 18:13:38 10° NE
Cosmos 332 Rocket 4.0 18:06:15 10° S 18:10:55 52° ESE 18:15:38 10° NNE
MONITOR-E 4.4 18:09:20 10° SSE 18:12:24 49° ENE 18:15:29 10° N
Cosmos 1844 3.8 18:06:51 10° NNW 18:12:35 61° ENE 18:18:18 10° SE
SKYMED 2 4.1 18:09:20 10° NNE 18:13:23 37° E 18:17:24 10° SSE
SL-14 R/B 4.3 18:13:33 10° SSE 18:16:51 26° E 18:20:11 10° NNE
Thor Agena Rocket 3.6 18:13:08 10° NNE 18:18:26 88° ESE 18:23:37 10° SSW
Cosmos 1674 2.8 18:14:45 10° S 18:18:34 81° W 18:22:26 10° N
SPOT 3 Rocket 3.8 18:13:53 10° S 18:19:01 74° WSW 18:24:12 10° NNW
MSX 3.9 18:13:37 10° SSE 18:19:20 88° WSW 18:25:06 10° NNW
Cosmos 1151 Rocket 3.4 18:15:22 10° N 18:19:24 39° ENE 18:23:25 10° SSE
Cosmos 1634 Rocket 4.0 18:13:31 10° N 18:19:39 59° E 18:25:42 10° SSE
Cosmos 1484 Rocket 2.8 18:18:32 10° SSE 18:22:24 66° ENE 18:26:22 10° N
Cosmos 1125 Rocket 3.7 18:18:20 10° N 18:23:24 48° ENE 18:28:23 10° SE
COSMOS 2428 2.9 18:18:29 10° SSW 18:24:12 78° WNW 18:29:57 10° NNE
Molniya-1 4.0 18:22:38 10° SW 18:25:21 89° WNW 18:30:12 10° NE
Cosmos 1500 Rocket 3.6 18:21:08 10° S 18:25:22 58° E 18:29:40 10° NNE
Cosmos 2237 Rocket 2.7 18:22:41 10° S 18:27:50 38° ESE 18:33:00 10° NE
BREEZE-M DEB (TANK) 3.8 18:20:45 10° NW 18:29:29 55° SW 18:32:42 10° SSE
ALOS 3.6 18:29:04 10° ESE 18:32:18 19° ENE 18:35:32 10° NNE
SL-16 R/B 3.6 18:29:04 10° SE 18:32:46 18° E 18:34:21 16° ENE
Cosmos 44 4.0 18:28:12 10° S 18:33:04 39° ESE 18:36:41 16° NE
Cosmos 1300 2.8 18:30:11 10° N 18:33:57 50° E 18:37:40 10° SSE
IDEFIX/ARIANE 42P 4.0 18:30:20 10° SSW 18:35:14 42° W 18:40:12 10° NNW
Cosmos 1726 2.2 18:32:20 10° N 18:36:03 55° E 18:39:45 10° SSE
Cosmos 2297 4.4 18:35:15 10° N 18:40:17 31° NE 18:44:55 12° ESE
Cosmos 841 Rocket 3.8 18:35:13 10° SSW 18:40:29 73° WNW 18:45:46 10° NNE
Cosmos 371 Rocket 3.2 18:36:31 10° SSW 18:41:17 76° ESE 18:46:07 10° NNE
Lacrosse 5 rocket 1.9 18:38:29 10° NNW 18:41:58 34° NE 18:43:37 24° E
BREEZE-M DEB (TANK) 3.1 18:40:21 10° SSW 18:42:29 26° SE 18:43:03 24° ESE
NOSS 0 Rocket 4.0 18:36:30 10° S 18:42:36 62° ESE 18:48:44 10° NNE
CZ-4 R/B 3.9 18:40:33 10° SSW 18:43:42 23° W 18:46:52 10° NW
OTV 4 2.3 18:45:05 10° WSW 18:47:36 25° S 18:49:25 15° SE
CENTAUR R/B 3.2 18:45:28 10° SW 18:51:29 55° NW 18:58:21 10° NNE
Meteor 1-11 4.2 18:48:54 10° S 18:54:27 61° E 19:00:07 10° NNE
Resurs 01 Rocket 2.5 18:54:22 27° ENE 18:54:39 27° ENE 18:58:25 10° N
Cosmos 2084 3.1 18:52:14 10° SW 18:56:08 88° SE 18:58:06 27° NE
Meteor 1-28 Rocket 3.0 18:55:11 10° NNE 18:58:55 85° ESE 19:02:38 10° SSW
Cosmos 1844 Rocket 3.9 18:53:38 10° NW 18:58:59 45° WSW 19:04:18 10° S
Cosmos 44 Rocket 3.4 18:55:34 10° SW 19:00:43 81° WNW 19:04:26 19° NNE
Cosmos 1328 4.2 18:57:32 10° SSW 19:01:26 64° W 19:05:23 10° N
COSMO-SKYMED 1 3.0 18:57:09 10° N 19:01:28 65° WNW 19:05:45 10° SSW
CZ-3A R/B 2.8 18:56:56 10° NW 19:01:56 56° NNE 19:04:51 24° ESE
Lacrosse 5 3.7 18:58:18 10° WNW 19:02:01 20° NNW 19:04:47 14° NNE
Aureole 2 Rocket 2.9 19:00:31 10° S 19:04:00 46° ESE 19:04:38 42° ENE
Cosmos 1707 Rocket 3.9 19:00:57 10° N 19:05:02 39° ENE 19:09:05 10° SSE
FengYun 1-2 T 4.4 19:05:29 10° SE 19:10:48 48° ENE 19:16:07 10° N
Cosmos 1461 4.3 19:08:06 10° S 19:10:31 22° SE 19:10:31 22° SE
Cosmos 2279 Rocket 3.9 19:05:46 10° N 19:12:01 87° E 19:18:15 10° S
SJ-6B 2.7 19:09:34 10° SSE 19:13:37 79° ENE 19:17:45 10° N
Cosmos 1980 3.7 19:09:23 10° SSW 19:15:04 82° WNW 19:19:45 16° NNE
Cosmos 1666 Rocket 4.3 19:12:24 10° SSE 19:15:24 34° SE 19:15:24 34° SE
Cosmos 2058 3.1 19:17:12 10° SSW 19:21:18 70° W 19:24:55 13° N
FENGYUN 3A 3.6 19:20:11 10° SSE 19:25:26 59° ENE 19:30:43 10° N
Cosmos 304 Rocket 3.7 19:22:32 10° S 19:27:17 64° ESE 19:28:08 53° ENE
Cosmos 2333 Rocket 2.8 19:22:05 10° SW 19:27:38 56° WNW 19:32:20 15° NNE
Cosmos 1703 3.0 19:25:21 10° S 19:29:15 82° E 19:29:16 82° E
Cosmos 2180 Rocket 4.5 19:23:53 10° N 19:30:04 82° W 19:36:15 10° S
Nadezhda 4 Rocket 3.9 19:27:23 10° S 19:33:33 65° E 19:39:48 10° NNE
ATLAS 5 CENTAUR R/B 4.3 19:34:45 10° N 19:36:14 12° NNE 19:36:14 12° NNE
Cosmos 2219 Rocket 3.6 19:36:02 10° WSW 19:41:10 35° WNW 19:46:00 11° N
Cosmos 1340 Rocket 3.6 19:40:17 10° SSW 19:44:07 49° WNW 19:45:23 34° NNW
BREEZE-M DEB (TANK) 4.2 19:43:10 10° W 19:43:55 17° W 19:43:55 17° W
Cosmos 2278 Rocket 3.4 19:40:10 10° NW 19:45:30 42° WSW 19:50:48 10° S
Cosmos 1092 Rocket 3.9 19:44:37 10° S 19:50:51 64° E 19:51:46 57° NE
USA 215 4.0 19:46:00 10° SSE 19:52:19 49° SW 19:58:40 10° WNW
Cosmos 1626 4.0 19:50:57 10° SSW 19:52:36 25° SSW 19:52:36 25° SSW
Cosmos 1805 Rocket 4.3 19:51:09 10° SSW 19:55:29 51° WNW 19:57:08 33° NNW
BREEZE-M DEB (TANK) 4.5 19:48:41 10° W 20:05:41 54° N 20:06:31 50° NNE
ALOS 3.1 20:04:50 10° S 20:09:21 50° W 20:13:55 10° NNW
CZ-4C R/B 4.5 20:07:04 10° NNW 20:09:59 16° N 20:09:59 16° N
Cosmos 2237 Rocket 3.6 20:06:52 10° WSW 20:11:55 33° NW 20:14:53 21° N
Spot 2 Rocket 4.2 20:09:54 10° S 20:14:48 51° W 20:19:44 10° NNW
SL-16 R/B 2.4 20:10:39 10° SW 20:16:16 66° WNW 20:16:19 66° WNW
Cosmos 2369 Rocket 4.4 20:12:18 10° N 20:13:01 13° N 20:13:01 13° N
Lacrosse 5 rocket 3.6 20:17:39 10° WNW 20:19:24 22° W 20:19:24 22° W
Resurs 01 Rocket 3.5 20:31:56 28° WNW 20:31:56 28° WNW 20:34:58 10° NW
USA 229 DEB 4.4 20:27:29 10° SSW 20:31:47 42° SSW 20:31:47 42° SSW
USA 229 4.4 20:27:35 10° SSW 20:31:50 41° SSW 20:31:50 41° SSW
Lacrosse 5 4.5 20:43:17 10° NW 20:43:59 12° NNW 20:43:59 12° NNW
H-2A ROCKET BODY 4.5 20:55:24 10° WSW 21:02:29 20° SSW 21:02:29 20° SSW
